Weather in Anninskiye Mineralnye Vody

Russia / Khabarovsk Krai     52°46′01″N   140°10′14″E
temp.,
°C
wind,
m/s
gust,
m/s
humid.,
%
clouds,
%
prec.,
mm/h
press.,
hPa
HPBL,
m
27 february, sat
sat2701:00−23ssw129677 0.0 102820
04:00−23ssw119450 0.0 102820
07:00−22sse118911 0.0 102920
10:00−15s12816 0.0 1028157
13:00−11s22790 0.0 1028401
16:00−11s238825 0.0 1025421
19:00−17sse2294100 0.0 102427
22:00−17se2295100 0.0 102249
28 february, sun
sun2801:00−15se2391100 0.0 1018130
04:00−13sse21096100 1.1 1014474
07:00−13ssw1297100 0.9 101244
10:00−12wnw2393100 1.6 1011400
13:00−12wnw4790100 0.2 1011691
16:00−13wnw4890100 0.3 1011572
19:00−18w2897100 0.1 1014391
22:00−22wsw229997 0.2 101547
1 march, mon
mon101:00−23sw23100100 0.1 101693
04:00−22w25100100 0.3 1017176
07:00−21wnw311100100 0.3 1019543
10:00−19wnw5889100 0.4 1021809
13:00−18wnw7117751 0.0 10211037
16:00−18nw587962 0.0 1022988
19:00−22sw1193100 0.0 102320
22:00−22wsw0199100 0.1 102420
2 march, tue
tue201:00−25wnw11100100 0.0 102420
04:00−26sse1193100 0.0 102519
07:00−26sse128898 0.0 102620
10:00−22sw478299 0.0 1026826
13:00−21wsw467131 0.0 10261220
16:00−20w477366 0.0 10261431
19:00−23wsw2386100 0.0 102661
22:00−26sse128672 0.0 102719
3 march, wed
wed301:00−28sse118515 0.0 102519
04:00−29sse12867 0.0 102519
07:00−29sse22820 0.0 102519
10:00−22s23780 0.0 1024177
13:00−17sw24700 0.0 1021646
16:00−17s348317 0.0 1019488
19:00−21ese1293100 0.0 101721
22:00−20ese1194100 0.0 101620